Time,TemperatureF,DewpointF,PressureIn,WindDirection,WindDirectionDegrees,WindSpeedMPH,WindSpeedGustMPH,Humidity,HourlyPrecipIn,Conditions,Clouds,dailyrainin,SoftwareType,DateUTC
2013-05-11 00:00:00,64.6,54.2,29.90,SSE,147,3.0,6.0,69,0.00,CLR,,0.00,WeatherDisplay:10.37,2013-05-11 04:00:00,
2013-05-11 00:15:00,64.9,54.1,29.90,South,171,5.0,5.0,68,0.00,CLR,,0.00,WeatherDisplay:10.37,2013-05-11 04:15:00,
2013-05-11 00:30:00,65.1,54.3,29.90,SE,143,5.0,7.0,68,0.00,CLR,,0.00,WeatherDisplay:10.37,2013-05-11 04:30:00,
2013-05-11 00:45:00,65.3,54.1,29.90,SE,134,6.0,7.0,67,0.00,CLR,,0.00,WeatherDisplay:10.37,2013-05-11 04:45:00,
2013-05-11 01:00:00,65.5,54.6,29.90,SE,138,2.0,5.0,68,0.00,CLR,,0.00,WeatherDisplay:10.37,2013-05-11 05:00:00,
2013-05-11 01:15:00,65.3,54.5,29.90,WNW,285,3.0,7.0,68,0.00,CLR,,0.00,WeatherDisplay:10.37,2013-05-11 05:15:00,
2013-05-11 01:30:00,67.3,55.9,29.93,NW,304,2.0,13.0,67,0.00,CLR,,0.00,WeatherDisplay:10.37,2013-05-11 05:30:00,
2013-05-11 01:45:00,66.0,57.1,29.93,NW,326,12.0,18.0,73,0.00,SCT,,0.00,WeatherDisplay:10.37,2013-05-11 05:45:00,
2013-05-11 02:00:00,65.5,57.7,29.93,NNW,339,9.0,10.0,76,0.00,BKN,,0.00,WeatherDisplay:10.37,2013-05-11 06:00:00,
2013-05-11 02:15:00,65.5,57.7,29.93,NNW,343,6.0,7.0,76,0.00,SCT,,0.00,WeatherDisplay:10.37,2013-05-11 06:15:00,
2013-05-11 02:30:00,65.5,57.7,29.93,NW,322,2.0,5.0,76,0.00,SCT,,0.00,WeatherDisplay:10.37,2013-05-11 06:30:00,
2013-05-11 02:45:00,64.0,58.1,29.93,NW,307,3.0,5.0,81,0.00,BKN,,0.00,WeatherDisplay:10.37,2013-05-11 06:45:00,
2013-05-11 03:00:00,63.0,59.7,29.90,West,273,3.0,4.0,89,0.01,OVC,,0.01,WeatherDisplay:10.37,2013-05-11 07:00:00,
2013-05-11 03:15:00,62.8,60.7,29.93,WNW,302,1.0,3.0,93,0.04,RA,,0.06,WeatherDisplay:10.37,2013-05-11 07:15:00,
2013-05-11 03:30:00,62.4,61.6,29.93,NNW,339,1.0,3.0,97,0.04,OVC,,0.10,WeatherDisplay:10.37,2013-05-11 07:30:00,
2013-05-11 03:45:00,62.4,61.6,29.93,NNW,330,1.0,0.0,97,0.00,CLR,,0.10,WeatherDisplay:10.37,2013-05-11 07:45:00,
2013-05-11 04:00:00,62.4,61.6,29.93,NNW,330,1.0,0.0,97,0.00,,,0.10,WeatherDisplay:10.37,2013-05-11 08:00:00,
2013-05-11 04:15:00,62.4,61.6,29.93,NNW,330,1.0,0.0,97,0.00,CLR,,0.10,WeatherDisplay:10.37,2013-05-11 08:15:00,
2013-05-11 04:30:00,61.7,60.8,29.90,SSE,150,2.0,5.0,97,0.00,CLR,,0.10,WeatherDisplay:10.37,2013-05-11 08:30:00,
2013-05-11 04:45:00,61.7,60.8,29.87,SE,128,3.0,6.0,97,0.00,,,0.10,WeatherDisplay:10.37,2013-05-11 08:45:00,
2013-05-11 05:00:00,61.5,60.7,29.87,SSE,152,3.0,5.0,97,0.00,CLR,,0.10,WeatherDisplay:10.37,2013-05-11 09:00:00,
2013-05-11 05:15:00,61.2,60.3,29.87,SE,137,2.0,6.0,97,0.00,CLR,,0.10,WeatherDisplay:10.37,2013-05-11 09:15:00,
2013-05-11 05:30:00,61.2,60.3,29.87,SE,131,3.0,5.0,97,0.00,CLR,,0.10,WeatherDisplay:10.37,2013-05-11 09:30:00,
2013-05-11 05:45:00,60.4,59.6,29.87,ESE,113,3.0,9.0,97,0.00,CLR,,0.10,WeatherDisplay:10.37,2013-05-11 09:45:00,
2013-05-11 06:00:00,59.7,58.9,29.87,SE,133,8.0,10.0,97,0.00,CLR,,0.10,WeatherDisplay:10.37,2013-05-11 10:00:00,
2013-05-11 06:15:00,59.4,58.5,29.87,ESE,104,8.0,9.0,97,0.00,CLR,,0.10,WeatherDisplay:10.37,2013-05-11 10:15:00,
2013-05-11 06:30:00,59.2,58.3,29.87,ESE,109,8.0,9.0,97,0.00,CLR,,0.10,WeatherDisplay:10.37,2013-05-11 10:30:00,
2013-05-11 06:45:00,59.7,58.9,29.87,ESE,116,7.0,10.0,97,0.00,CLR,,0.10,WeatherDisplay:10.37,2013-05-11 10:45:00,
2013-05-11 07:00:00,59.7,58.9,29.87,SSE,149,7.0,10.0,97,0.00,CLR,,0.00,WeatherDisplay:10.37,2013-05-11 11:00:00,
2013-05-11 07:15:00,60.3,59.4,29.87,ESE,116,7.0,8.0,97,0.00,CLR,,0.00,WeatherDisplay:10.37,2013-05-11 11:15:00,
2013-05-11 07:30:00,61.0,60.1,29.87,SE,126,6.0,11.0,97,0.00,CLR,,0.00,WeatherDisplay:10.37,2013-05-11 11:30:00,
2013-05-11 07:45:00,61.5,60.7,29.87,SSE,150,3.0,5.0,97,0.00,BKN,,0.00,WeatherDisplay:10.37,2013-05-11 11:45:00,
2013-05-11 08:00:00,61.9,61.0,29.87,SE,128,3.0,6.0,97,0.00,BKN,,0.00,WeatherDisplay:10.37,2013-05-11 12:00:00,
2013-05-11 08:15:00,63.3,62.5,29.84,SSE,161,3.0,6.0,97,0.00,CLR,,0.00,WeatherDisplay:10.37,2013-05-11 12:15:00,
2013-05-11 08:30:00,63.9,63.0,29.84,SSE,152,2.0,3.0,97,0.00,CLR,,0.00,WeatherDisplay:10.37,2013-05-11 12:30:00,
2013-05-11 08:45:00,63.7,63.7,29.84,SSE,151,1.0,3.0,100,0.00,CLR,,0.00,WeatherDisplay:10.37,2013-05-11 12:45:00,
2013-05-11 09:00:00,63.1,62.6,29.87,WNW,300,0.0,0.0,98,0.00,CLR,,0.00,WeatherDisplay:10.37,2013-05-11 13:00:00,
2013-05-11 09:15:00,62.2,61.7,29.87,West,261,0.0,1.0,98,0.03,RA,,0.03,WeatherDisplay:10.37,2013-05-11 13:15:00,
2013-05-11 09:30:00,61.9,61.6,29.87,SE,134,1.0,3.0,99,0.00,OVC,,0.03,WeatherDisplay:10.37,2013-05-11 13:30:00,
2013-05-11 09:45:00,61.3,61.3,29.84,SE,145,2.0,5.0,100,0.03,RA,,0.06,WeatherDisplay:10.37,2013-05-11 13:45:00,
2013-05-11 10:00:00,62.1,62.1,29.84,East,93,1.0,5.0,100,0.00,,,0.06,WeatherDisplay:10.37,2013-05-11 14:00:00,
2013-05-11 10:15:00,62.4,62.4,29.84,SE,139,1.0,2.0,100,0.01,RA,,0.07,WeatherDisplay:10.37,2013-05-11 14:15:00,
2013-05-11 10:30:00,62.1,62.1,29.87,South,175,3.0,6.0,100,0.01,RA,,0.09,WeatherDisplay:10.37,2013-05-11 14:30:00,
2013-05-11 10:45:00,62.2,62.2,29.87,South,175,5.0,6.0,100,0.07,RA,,0.16,WeatherDisplay:10.37,2013-05-11 14:45:00,
2013-05-11 11:00:00,63.5,63.5,29.87,SW,236,3.0,6.0,100,0.01,CLR,,0.17,WeatherDisplay:10.37,2013-05-11 15:00:00,
2013-05-11 11:15:00,63.5,63.5,29.84,SE,131,2.0,5.0,100,0.01,RA,,0.18,WeatherDisplay:10.37,2013-05-11 15:15:00,
2013-05-11 11:30:00,63.5,63.5,29.84,SSW,205,3.0,5.0,100,0.03,CLR,,0.21,WeatherDisplay:10.37,2013-05-11 15:30:00,
2013-05-11 11:45:00,64.2,64.2,29.84,South,170,1.0,3.0,100,0.00,OVC,,0.21,WeatherDisplay:10.37,2013-05-11 15:45:00,
2013-05-11 12:00:00,65.3,65.3,29.84,SSE,165,3.0,8.0,100,0.00,OVC,,0.21,WeatherDisplay:10.37,2013-05-11 16:00:00,
2013-05-11 12:15:00,66.7,66.7,29.81,SE,131,5.0,8.0,100,0.00,CLR,,0.21,WeatherDisplay:10.37,2013-05-11 16:15:00,
2013-05-11 12:30:00,69.6,67.2,29.81,SSW,206,5.0,8.0,92,0.00,CLR,,0.21,WeatherDisplay:10.37,2013-05-11 16:30:00,
2013-05-11 12:45:00,70.2,63.3,29.81,South,182,6.0,7.0,79,0.00,BKN,,0.21,WeatherDisplay:10.37,2013-05-11 16:45:00,
2013-05-11 13:00:00,71.4,63.1,29.81,South,180,7.0,16.0,75,0.00,SCT,,0.21,WeatherDisplay:10.37,2013-05-11 17:00:00,
2013-05-11 13:15:00,71.6,62.1,29.78,SSE,166,7.0,12.0,72,0.00,FEW,,0.21,WeatherDisplay:10.37,2013-05-11 17:15:00,
2013-05-11 13:30:00,73.0,63.1,29.78,SE,124,8.0,9.0,71,0.00,FEW,,0.21,WeatherDisplay:10.37,2013-05-11 17:30:00,
2013-05-11 13:45:00,73.0,62.7,29.81,South,181,8.0,12.0,70,0.00,CLR,,0.21,WeatherDisplay:10.37,2013-05-11 17:45:00,
2013-05-11 14:00:00,73.2,61.6,29.81,SSE,162,8.0,15.0,67,0.00,CLR,,0.21,WeatherDisplay:10.37,2013-05-11 18:00:00,
2013-05-11 14:15:00,73.4,60.5,29.78,South,175,9.0,10.0,64,0.00,CLR,,0.21,WeatherDisplay:10.37,2013-05-11 18:15:00,
2013-05-11 14:30:00,72.5,60.1,29.78,SSE,163,7.0,8.0,65,0.00,CLR,,0.21,WeatherDisplay:10.37,2013-05-11 18:30:00,
2013-05-11 14:45:00,71.2,59.3,29.78,SSE,153,8.0,13.0,66,0.00,CLR,,0.21,WeatherDisplay:10.37,2013-05-11 18:45:00,
2013-05-11 15:00:00,74.8,61.4,29.75,South,185,8.0,10.0,63,0.00,CLR,,0.21,WeatherDisplay:10.37,2013-05-11 19:00:00,
2013-05-11 15:15:00,73.9,59.2,29.75,SE,136,8.0,10.0,60,0.00,FEW,,0.21,WeatherDisplay:10.37,2013-05-11 19:15:00,
2013-05-11 15:30:00,74.5,59.7,29.75,SE,136,8.0,10.0,60,0.00,FEW,,0.21,WeatherDisplay:10.37,2013-05-11 19:30:00,
2013-05-11 15:45:00,73.2,59.4,29.75,SE,143,8.0,14.0,62,0.00,CLR,,0.21,WeatherDisplay:10.37,2013-05-11 19:45:00,
2013-05-11 16:00:00,70.3,58.0,29.75,SE,144,7.0,7.0,65,0.00,CLR,,0.21,WeatherDisplay:10.37,2013-05-11 20:00:00,
2013-05-11 16:15:00,69.1,58.1,29.75,SE,144,7.0,10.0,68,0.00,CLR,,0.21,WeatherDisplay:10.37,2013-05-11 20:15:00,
2013-05-11 16:30:00,72.3,60.7,29.75,South,178,8.0,13.0,67,0.01,SCT,,0.23,WeatherDisplay:10.37,2013-05-11 20:30:00,
2013-05-11 16:45:00,73.2,60.3,29.72,South,186,7.0,9.0,64,0.00,BKN,,0.23,WeatherDisplay:10.37,2013-05-11 20:45:00,
2013-05-11 17:00:00,72.3,59.0,29.72,SSE,152,9.0,14.0,63,0.00,FEW,,0.23,WeatherDisplay:10.37,2013-05-11 21:00:00,
2013-05-11 17:15:00,70.7,59.2,29.72,South,172,6.0,10.0,67,0.00,FEW,,0.23,WeatherDisplay:10.37,2013-05-11 21:15:00,
2013-05-11 17:30:00,71.1,59.5,29.72,South,183,8.0,14.0,67,0.00,FEW,,0.23,WeatherDisplay:10.37,2013-05-11 21:30:00,
2013-05-11 17:45:00,71.6,58.8,29.72,SSE,156,9.0,12.0,64,0.00,BKN,,0.23,WeatherDisplay:10.37,2013-05-11 21:45:00,
2013-05-11 18:00:00,71.8,58.1,29.72,SSE,159,7.0,11.0,62,0.00,BKN,,0.23,WeatherDisplay:10.37,2013-05-11 22:00:00,
2013-05-11 18:15:00,69.8,58.3,29.72,SSE,164,9.0,11.0,67,0.00,SCT,,0.23,WeatherDisplay:10.37,2013-05-11 22:15:00,
2013-05-11 18:30:00,66.9,58.7,29.72,SSE,163,10.0,12.0,75,0.00,SCT,,0.23,WeatherDisplay:10.37,2013-05-11 22:30:00,
2013-05-11 18:45:00,67.5,60.4,29.72,SSE,167,7.0,12.0,78,0.00,SCT,,0.23,WeatherDisplay:10.37,2013-05-11 22:45:00,
2013-05-11 19:00:00,68.4,60.5,29.72,SE,129,6.0,9.0,76,0.00,BKN,,0.23,WeatherDisplay:10.37,2013-05-11 23:00:00,
2013-05-11 19:15:00,66.9,59.1,29.72,ESE,116,7.0,9.0,76,0.00,FEW,,0.23,WeatherDisplay:10.37,2013-05-11 23:15:00,
2013-05-11 19:30:00,66.7,59.7,29.72,SE,144,3.0,7.0,78,0.00,FEW,,0.23,WeatherDisplay:10.37,2013-05-11 23:30:00,
2013-05-11 19:45:00,66.2,60.2,29.75,SSE,149,2.0,3.0,81,0.00,SCT,,0.23,WeatherDisplay:10.37,2013-05-11 23:45:00,
2013-05-11 20:00:00,65.5,60.5,29.75,SSE,147,1.0,3.0,84,0.00,SCT,,0.23,WeatherDisplay:10.37,2013-05-12 00:00:00,
2013-05-11 20:15:00,65.3,61.3,29.72,SW,220,1.0,3.0,87,0.00,CLR,,0.23,WeatherDisplay:10.37,2013-05-12 00:15:00,
2013-05-11 20:30:00,66.0,59.7,29.75,NW,319,6.0,12.0,80,0.00,CLR,,0.23,WeatherDisplay:10.37,2013-05-12 00:30:00,
2013-05-11 20:45:00,66.0,58.2,29.75,NNW,333,5.0,6.0,76,0.00,CLR,,0.23,WeatherDisplay:10.37,2013-05-12 00:45:00,
2013-05-11 21:00:00,65.5,57.7,29.75,North,350,1.0,0.0,76,0.00,SCT,,0.23,WeatherDisplay:10.37,2013-05-12 01:00:00,
2013-05-11 21:15:00,64.9,57.6,29.75,NW,321,0.0,2.0,77,0.00,BKN,,0.23,WeatherDisplay:10.37,2013-05-12 01:15:00,
2013-05-11 21:30:00,64.4,57.7,29.75,NNW,333,0.0,0.0,79,0.00,BKN,,0.23,WeatherDisplay:10.37,2013-05-12 01:30:00,
2013-05-11 21:45:00,63.9,57.9,29.75,NNW,335,0.0,0.0,81,0.00,SCT,,0.23,WeatherDisplay:10.37,2013-05-12 01:45:00,
2013-05-11 22:00:00,64.2,59.3,29.75,NNW,332,0.0,0.0,84,0.00,BKN,,0.23,WeatherDisplay:10.37,2013-05-12 02:00:00,
2013-05-11 22:15:00,63.0,59.0,29.75,NNW,330,0.0,0.0,87,0.00,BKN,,0.23,WeatherDisplay:10.37,2013-05-12 02:15:00,
2013-05-11 22:30:00,62.8,59.8,29.75,NNW,330,0.0,0.0,90,0.00,SCT,,0.23,WeatherDisplay:10.37,2013-05-12 02:30:00,
2013-05-11 22:45:00,63.0,60.3,29.75,NNW,330,0.0,0.0,91,0.00,CLR,,0.23,WeatherDisplay:10.37,2013-05-12 02:45:00,
2013-05-11 23:00:00,63.1,60.8,29.75,NNW,334,0.0,0.0,92,0.00,BKN,,0.23,WeatherDisplay:10.37,2013-05-12 03:00:00,
2013-05-11 23:15:00,63.5,61.4,29.75,NNW,330,0.0,0.0,93,0.00,CLR,,0.23,WeatherDisplay:10.37,2013-05-12 03:15:00,
2013-05-11 23:30:00,63.5,61.1,29.78,West,277,0.0,2.0,92,0.00,CLR,,0.23,WeatherDisplay:10.37,2013-05-12 03:30:00,
2013-05-11 23:45:00,62.4,59.4,29.75,WNW,301,1.0,2.0,90,0.00,OVC,,0.23,WeatherDisplay:10.37,2013-05-12 03:45:00,